Regional Weather Roundup
Issued by NWS

Home | Current Version | Previous Version | Text Only | Print | Product List | Glossary Off
Versions: 1 2 3 4 5 6 7 8 9 10 11 12 13 14 15 16 17 18 19 20 21 22 23 24 25 26 27 28 29 30 31 32 33 34 35 36 37 38 39 40 41 42 43 44 45 46 47 48 49 50

000
ASUS43 KLMK 060410
RWRKY
KENTUCKY REGIONAL WEATHER ROUNDUP
NATIONAL WEATHER SERVICE LOUISVILLE KY
1200 AM EDT WED MAY 06 2015

NOTE "FAIR" INDICATES FEW OR NO CLOUDS BELOW 12,000 FEET
WITH NO SIGNIFICANT WEATHER AND/OR OBSTRUCTIONS TO VISIBILITY.

KYZ001>023-026-027-061>063-070>075-060500-
WESTERN AND SOUTH CENTRAL KENTUCKY

CITY           SKY/WX    TMP DP  RH WIND       PRES   REMARKS
PADUCAH        CLEAR     67  54  63 S3        30.16S
HENDERSON      CLEAR     63  54  72 CALM      30.17F
OWENSBORO      CLEAR     69  57  65 CALM      30.19S
HOPKINSVILLE   NOT AVBL
BOWLING GREEN  CLEAR     66  56  70 CALM      30.21R
GLASGOW        CLEAR     62  56  82 CALM      30.22R
$$

KYZ024-025-028>034-038-045-046-053-060500-
NORTH CENTRAL KENTUCKY

CITY           SKY/WX    TMP DP  RH WIND       PRES   REMARKS
LOUISVILLE/SDF CLEAR     72  54  53 CALM      30.20S
LOUISVILLE/LOU CLEAR     68  54  60 CALM      30.21R
FORT KNOX      CLEAR     63  55  77 CALM      30.20S
$$

KYZ035>037-039>044-047>052-055>060-089>105-060500-
NORTHEAST KENTUCKY

CITY           SKY/WX    TMP DP  RH WIND       PRES   REMARKS
LEXINGTON      CLEAR     64  55  72 S3        30.23S
COVINGTON      CLEAR     65  54  67 CALM      30.21S
FRANKFORT      CLEAR     62  53  72 CALM      30.21R
$$

KYZ054-064>069-076>088-106>120-060500-
SOUTHEAST KENTUCKY

CITY           SKY/WX    TMP DP  RH WIND       PRES   REMARKS
JACKSON        CLEAR     71  51  49 CALM      30.25S
LONDON         PTCLDY    64  53  67 CALM      30.24S
SOMERSET       CLEAR     61  54  77 CALM      30.25S
MIDDLESBORO    CLOUDY    61  55  82 CALM      30.26S
MONTICELLO     CLEAR     59  56  89 CALM      30.26S
$$



USA.gov is the U.S. government's official web portal to all federal, state and local government web resources and services.